Wind_Speed
43 44 44 44 45 45 46 46 46 45 45 44 42 41 40 38 37 35 34 33 31 30 29 28 27 26 25 26 27 30 33 37 40 42 43 44 46 46 46 45 45 45 44 43 42 40 39 38 37 36 35 34 33 33 32 31 31 30 30 28 26 26 23 19 18 17 16 17 15 13 15 18 17 18 21 25 27 26 27 27 27 27 28 31 33 33 31 28
44 45 45 45 45 46 46 46 47 47 46 46 45 44 43 42 40 39 37 36 35 34 33 32 31 30 28 28 28 29 32 35 38 40 42 43 45 46 46 47 47 47 46 45 44 43 42 41 40 39 38 37 37 35 34 34 33 33 32 31 28 25 23 21 19 17 16 15 15 15 16 15 17 19 20 23 26 27 27 27 27 26 26 29 32 31 28 26
45 46 46 46 46 47 46 47 47 48 48 47 47 46 45 44 43 42 41 39 38 37 36 35 34 33 32 31 30 30 32 34 37 38 40 43 44 45 46 47 48 48 48 47 47 46 44 43 43 42 41 40 39 38 37 36 35 34 34 34 31 27 24 23 21 18 16 15 13 14 17 17 20 22 21 22 25 28 28 29 27 25 26 29 31 29 25 24
45 46 47 47 47 47 47 47 48 48 49 49 48 48 48 47 46 45 44 43 42 40 39 38 37 36 35 35 33 32 32 34 37 37 38 41 43 44 46 47 48 49 49 49 48 47 46 45 44 43 42 42 41 40 39 38 37 36 35 34 33 31 27 24 23 19 16 15 11 14 20 21 22 23 23 23 25 27 27 28 27 26 27 29 30 26 23 24
45 46 47 47 48 48 48 48 48 49 49 49 50 50 49 49 49 48 47 46 45 44 43 41 41 40 39 38 37 36 34 35 37 36 37 40 42 42 44 46 48 49 49 50 49 48 47 47 46 45 44 43 42 41 41 39 38 37 36 35 35 34 31 28 26 23 19 16 13 20 26 25 25 24 24 25 26 25 24 27 27 26 27 29 30 24 21 23
46 47 47 48 48 49 49 49 49 50 50 50 51 51 51 51 51 50 49 49 48 47 46 45 44 43 42 41 40 39 38 39 38 36 38 39 40 41 42 43 46 48 49 50 50 49 48 48 47 47 47 45 44 44 42 40 39 39 38 36 35 35 34 32 31 28 26 22 20 26 28 26 26 25 26 26 25 25 24 25 26 26 26 29 29 22 20 22
47 48 49 49 50 50 50 50 50 50 51 51 52 52 52 52 52 52 52 51 51 50 49 48 47 46 45 44 44 43 41 43 40 38 39 38 39 40 41 41 42 45 48 49 49 50 49 49 49 48 48 47 46 46 44 43 43 42 41 39 36 35 36 36 35 32 29 27 24 25 24 25 27 27 27 27 25 25 25 24 24 25 26 28 25 20 20 21
49 49 50 50 51 51 51 52 52 52 52 52 52 53 53 53 53 54 53 53 53 52 52 51 50 49 48 47 47 45 45 46 43 41 41 40 39 40 41 41 40 41 45 47 48 49 50 50 50 50 49 48 48 47 46 46 46 45 44 42 40 39 38 38 38 35 33 31 27 26 24 24 27 28 28 28 26 25 25 24 23 25 27 26 22 18 18 19
52 52 52 52 53 53 53 53 54 54 54 54 53 53 54 54 54 54 55 55 55 54 54 53 52 52 51 50 49 48 49 49 46 45 45 43 41 41 41 42 41 40 41 44 47 47 49 50 50 50 50 49 48 48 48 48 49 48 46 45 44 43 42 41 40 39 38 36 33 31 29 28 29 28 28 28 27 25 24 25 25 26 27 23 19 16 16 18
55 55 55 55 55 55 55 55 55 56 56 55 55 55 55 55 55 55 56 56 56 56 56 55 55 54 54 53 51 51 51 50 49 50 48 46 45 43 43 43 43 41 39 41 44 45 47 47 48 49 49 50 50 50 50 50 49 49 48 48 47 46 45 44 44 42 41 40 39 36 34 32 29 27 27 26 26 24 22 24 25 25 24 20 17 14 14 16
59 59 58 58 58 58 57 57 58 58 57 57 57 57 57 57 56 56 57 57 57 57 58 57 57 57 56 55 54 54 54 52 52 53 51 50 48 46 45 45 44 43 41 40 41 44 44 44 45 47 48 50 51 51 51 51 50 50 50 49 48 48 47 46 46 44 43 42 41 39 36 34 31 28 26 24 23 21 20 22 24 24 22 18 14 12 12 14
63 63 62 62 61 61 60 60 60 60 60 59 59 59 59 59 59 58 58 58 58 59 59 59 59 59 58 58 57 57 56 55 55 55 54 53 52 50 48 47 46 45 43 42 41 42 43 42 41 43 47 49 50 50 51 51 52 52 50 49 48 48 48 47 46 44 44 44 42 40 38 36 32 29 27 25 22 20 21 21 22 23 21 17 13 10 9 12
68 67 66 66 65 65 64 64 63 63 62 62 61 61 61 61 61 61 60 60 60 60 60 61 61 61 60 60 60 59 59 59 58 57 57 56 54 53 52 50 49 47 46 44 43 42 42 41 39 40 43 45 47 48 50 51 52 52 51 50 48 48 48 47 45 44 45 44 42 41 39 36 32 29 28 26 22 21 22 20 20 22 21 17 12 8 7 10
71 71 70 70 69 69 69 68 67 66 66 65 64 64 63 63 63 63 63 63 62 62 62 62 62 63 62 62 62 61 61 61 61 60 59 58 57 56 55 54 52 50 49 47 45 44 42 41 39 38 39 43 44 46 49 50 50 50 50 49 49 49 48 45 44 44 44 44 42 40 38 35 32 30 28 26 23 23 22 19 20 23 22 17 12 7 6 7
73 73 73 73 73 73 72 72 71 71 70 69 68 67 66 66 66 65 65 65 65 64 64 64 64 64 64 64 64 64 64 63 63 63 62 61 60 59 58 57 55 54 52 49 48 46 45 43 41 38 38 40 41 43 47 47 47 48 48 49 49 49 47 46 45 45 43 42 40 39 37 35 32 30 28 26 24 23 19 17 20 23 23 18 12 7 5 5
73 74 74 75 75 75 75 75 75 74 74 73 72 71 70 69 69 68 68 67 67 67 67 66 66 66 66 66 66 65 66 65 65 65 64 63 63 61 60 59 59 58 55 53 51 49 47 45 43 41 38 38 39 41 45 44 43 45 45 47 48 47 46 46 46 44 43 42 40 38 37 35 33 31 28 26 25 22 18 16 20 23 23 19 13 7 4 4
73 74 74 75 76 77 77 77 77 77 77 76 76 75 74 73 72 71 71 70 70 69 69 69 68 68 67 67 67 67 67 67 67 67 66 66 65 64 63 63 62 60 59 56 54 52 50 48 46 44 41 39 38 39 41 40 39 42 44 45 46 46 45 45 45 44 43 42 41 39 37 36 34 31 29 27 26 22 18 17 20 21 20 18 13 8 5 3
74 75 76 76 76 77 77 78 78 79 79 79 79 79 78 78 76 75 74 74 73 72 71 71 71 70 69 69 70 69 68 68 69 69 69 68 67 66 66 65 63 63 62 60 57 55 53 51 49 46 43 41 40 39 40 41 41 43 45 46 46 46 45 44 44 43 43 42 41 39 38 36 35 32 29 27 25 22 20 20 21 19 17 17 13 8 5 3
73 75 76 77 78 78 78 78 79 79 80 80 81 81 81 81 80 79 79 78 77 76 75 74 73 72 71 71 72 71 70 70 70 70 70 70 69 69 68 68 66 65 65 63 61 59 57 54 51 47 45 46 46 44 44 44 43 43 46 47 46 45 44 44 43 42 41 41 40 38 37 35 34 32 29 27 25 24 21 20 21 20 17 16 14 10 6 4
72 74 76 78 79 80 80 80 80 80 80 80 81 82 82 82 82 82 82 82 81 80 79 77 77 75 73 72 74 73 72 72 72 71 71 71 71 71 70 70 68 67 66 65 65 63 61 57 52 50 50 53 52 48 48 46 42 42 44 44 43 41 41 41 40 39 39 38 37 36 35 34 32 30 29 27 27 28 24 21 22 22 19 17 14 11 8 4
72 74 75 76 78 80 81 82 82 81 81 81 82 82 82 83 83 83 84 84 84 84 83 81 80 78 76 75 76 75 74 74 74 73 73 73 73 73 72 71 70 69 68 68 68 67 64 60 55 54 56 56 54 51 50 47 44 43 42 41 39 37 38 39 39 39 38 36 35 35 34 33 31 29 29 28 28 30 26 24 25 24 21 19 15 11 8 4
71 73 75 77 78 80 81 82 83 83 83 83 83 83 83 83 83 84 85 85 85 86 85 85 84 82 81 79 78 78 76 76 75 75 75 75 75 75 73 73 72 71 71 70 69 68 66 62 59 60 60 58 56 54 53 50 47 44 42 42 41 38 38 38 38 39 37 35 35 34 32 31 31 30 31 30 30 30 27 26 27 27 24 21 16 11 8 6
70 72 75 76 78 80 81 81 83 84 85 85 85 85 84 84 84 84 85 85 86 87 86 87 86 85 85 84 82 81 80 78 77 76 77 77 78 77 74 75 74 73 73 72 71 69 67 65 65 66 64 61 59 58 56 53 50 46 44 46 44 40 39 38 38 37 36 36 35 33 33 32 31 32 33 33 33 31 28 27 28 28 26 21 16 12 10 11
70 71 73 75 77 79 81 81 81 83 84 85 86 87 86 86 86 86 85 86 86 87 87 87 87 87 87 87 86 85 84 83 80 78 79 80 79 78 76 77 76 75 74 74 73 71 69 69 69 70 68 65 63 61 58 56 54 50 49 50 47 44 41 39 38 36 34 35 34 34 36 34 33 35 36 37 37 33 29 29 30 30 27 21 17 15 15 15
70 71 73 74 75 76 78 79 80 81 82 83 84 86 87 87 87 87 87 87 86 87 88 87 87 88 88 89 89 89 88 87 84 82 83 83 81 79 79 79 79 78 77 76 75 73 72 72 73 73 72 69 66 63 61 60 57 53 53 53 51 48 44 42 39 36 35 35 34 35 36 35 35 37 39 40 39 35 33 32 31 31 28 23 20 19 17 17
67 69 70 71 72 72 74 76 77 79 80 81 82 82 84 85 87 88 88 88 87 86 88 88 87 89 89 89 90 91 91 90 89 87 87 86 83 82 81 81 81 81 80 79 78 76 74 74 75 75 74 72 70 66 64 62 60 56 55 55 55 52 48 44 41 37 37 36 35 34 34 35 36 39 42 43 40 38 37 35 32 31 29 25 23 21 20 19
59 61 63 67 68 68 69 71 73 74 77 79 80 80 81 82 84 85 87 89 88 87 89 90 89 90 89 89 91 92 92 92 92 91 90 90 87 85 84 83 83 83 83 82 80 78 76 76 76 76 76 75 72 69 66 65 63 60 59 60 58 55 51 46 42 40 40 37 35 33 34 38 39 41 44 44 42 40 39 37 34 33 31 28 26 23 22 21
52 54 56 60 61 61 63 66 67 69 71 74 76 77 79 80 82 82 84 86 86 87 90 91 91 91 90 90 92 92 92 92 93 93 93 94 92 89 88 87 86 86 85 84 81 80 79 78 78 79 79 76 74 72 71 69 66 65 64 64 61 57 54 48 44 43 42 39 38 37 38 39 40 42 44 44 43 40 38 37 37 35 32 30 28 26 24 22
46 48 50 51 52 53 56 59 61 63 64 66 69 72 74 77 79 80 82 83 83 85 88 89 91 92 91 92 93 93 93 93 93 93 94 96 95 93 93 91 89 88 86 84 83 83 82 80 81 82 80 78 77 76 76 74 71 70 68 66 63 60 56 51 47 46 44 42 40 40 40 39 39 41 43 42 42 41 39 39 38 35 33 32 30 28 26 23
39 41 42 43 45 46 49 52 53 56 58 60 63 65 68 71 73 76 78 78 80 82 83 84 88 91 92 93 93 93 93 93 93 93 94 96 96 96 97 95 92 92 90 87 85 84 84 83 82 82 80 79 79 79 79 78 74 73 71 69 67 62 58 54 51 49 46 42 41 41 41 39 39 41 40 40 41 42 42 42 41 39 37 35 32 29 28 25
34 36 37 38 40 42 44 47 48 50 53 55 57 59 61 64 66 69 70 73 75 78 79 81 83 86 89 92 92 93 94 94 93 93 94 96 96 97 98 98 98 97 94 91 87 86 86 85 83 82 81 81 81 81 81 79 76 76 75 72 69 64 61 59 56 52 46 42 43 43 42 40 40 38 38 39 41 44 45 44 43 41 39 37 34 31 29 27
30 32 34 35 37 39 41 44 45 46 48 50 52 54 55 57 60 62 63 66 68 71 74 77 78 80 84 88 89 91 94 94 94 94 95 95 96 98 100 101 101 99 96 94 91 89 89 87 85 85 85 84 82 82 82 79 78 81 79 76 71 67 65 63 59 53 46 44 46 47 45 43 40 39 39 40 42 44 45 45 43 41 40 38 34 32 30 28
28 30 31 32 34 36 38 40 42 43 45 46 47 48 50 52 55 57 58 60 62 65 68 70 72 74 78 81 82 86 91 92 92 94 95 95 97 99 101 101 100 99 98 98 96 93 91 88 86 87 88 87 84 83 83 81 82 84 82 78 74 70 68 66 61 55 49 48 50 51 48 44 41 42 43 43 44 45 45 45 44 41 40 38 36 33 31 29
31 31 32 32 33 34 36 37 39 40 41 42 43 44 46 49 51 52 52 54 57 59 60 63 66 68 71 73 75 81 86 87 90 93 95 96 98 101 102 101 100 100 100 101 99 97 95 91 89 88 89 89 87 85 85 85 87 87 85 82 78 74 71 69 65 60 56 54 54 54 50 45 44 44 45 45 45 46 46 46 45 43 41 40 36 33 31 29
35 35 35 35 35 35 37 38 39 40 41 42 43 43 45 47 47 48 49 50 53 54 55 58 60 62 65 67 70 75 79 80 85 91 94 96 99 101 102 99 99 99 100 101 101 100 98 95 93 91 91 92 90 88 89 90 90 89 87 85 82 76 73 73 70 65 61 59 58 57 53 49 48 48 48 48 47 47 47 47 47 45 44 42 37 34 33 31
38 38 37 37 38 38 39 40 40 41 42 43 44 44 45 45 45 46 48 48 49 51 52 53 54 57 60 63 66 69 73 75 80 86 91 94 97 100 100 98 98 100 101 102 102 102 101 100 99 96 95 95 92 91 92 93 92 90 89 87 84 79 77 78 75 70 65 61 59 59 56 54 53 51 52 52 49 48 48 48 48 47 44 42 39 38 37 35
39 39 39 39 40 40 41 41 42 42 43 44 45 44 44 44 44 45 45 46 46 48 49 49 50 53 57 59 61 63 69 73 75 80 86 90 94 98 98 97 98 101 102 103 103 103 103 103 102 100 97 96 94 92 93 95 94 92 91 89 87 84 83 82 80 75 69 64 63 62 59 57 56 54 54 54 51 50 51 51 50 47 45 43 42 42 41 38
40 41 40 39 40 41 42 42 42 42 43 44 44 43 43 43 42 42 42 42 42 44 45 45 46 50 53 54 54 58 67 70 68 73 82 86 89 94 96 95 98 102 103 104 104 104 104 103 104 104 101 98 95 92 93 96 95 92 91 90 90 89 87 87 84 78 71 68 68 66 63 60 59 58 58 57 55 53 54 54 50 49 48 46 45 45 41 38
39 40 40 39 39 40 41 41 41 41 41 42 42 41 40 39 39 39 38 39 39 40 42 41 42 45 48 48 50 54 60 63 65 71 78 82 84 88 92 94 97 102 104 105 106 105 104 104 106 106 104 102 100 97 95 96 96 94 93 92 92 91 90 89 87 82 76 73 72 69 66 64 61 61 61 60 58 56 56 55 52 53 53 50 48 47 43 40
36 37 37 36 36 37 37 38 38 38 38 37 37 36 36 35 36 36 36 36 37 37 38 38 39 41 43 44 48 50 52 59 66 68 71 76 80 84 88 91 94 100 104 106 107 107 106 105 107 108 107 105 104 102 99 97 98 98 96 95 94 93 92 90 88 86 81 76 74 72 70 67 65 65 64 62 61 59 58 58 56 56 55 52 51 49 45 42
32 32 32 32 32 32 33 33 33 32 32 32 32 32 32 33 33 34 33 33 34 35 35 36 37 38 40 41 44 46 47 54 61 64 66 72 77 79 82 86 92 98 103 106 109 110 109 107 107 109 110 108 107 107 104 101 102 102 99 98 97 95 94 92 89 88 84 79 77 76 74 72 70 71 69 65 65 63 62 62 60 60 59 56 54 52 48 44
31 29 28 28 28 28 28 29 28 28 28 28 29 30 30 31 32 31 31 31 32 33 33 34 36 37 37 39 41 43 44 49 54 59 63 68 71 74 77 83 91 98 104 108 110 110 109 107 107 109 110 109 109 110 109 106 105 105 103 102 101 99 98 94 91 91 89 84 82 80 79 77 76 76 73 69 69 67 65 65 63 62 62 58 56 54 50 47
30 29 27 25 25 25 26 26 26 26 26 27 27 28 29 30 30 29 29 29 31 32 32 32 35 36 36 39 41 40 42 46 49 54 59 63 67 70 74 80 89 98 104 109 111 110 109 109 108 109 111 110 109 110 109 108 108 108 106 105 103 101 100 97 94 94 94 91 88 85 83 82 81 78 74 72 71 69 67 66 65 65 64 59 56 55 52 49
31 28 26 25 24 24 24 25 25 25 26 26 27 28 28 28 28 28 28 29 30 31 31 31 33 35 35 38 41 40 41 44 47 50 55 59 63 67 72 78 85 95 102 106 110 111 111 111 111 111 112 112 111 111 110 110 110 109 107 105 103 102 102 101 98 98 97 95 92 90 87 85 83 79 77 75 73 71 69 69 69 68 66 62 59 57 53 51
32 29 26 24 23 23 24 24 25 25 25 26 26 26 27 27 28 28 28 29 29 30 30 30 32 34 34 37 40 40 41 43 46 48 51 56 60 64 70 75 81 92 100 103 108 110 111 111 111 112 114 113 113 114 115 114 114 112 111 108 105 104 103 102 99 98 97 95 94 92 90 88 86 83 81 78 76 75 74 73 72 71 69 67 62 56 53 51
31 29 27 24 22 23 23 24 24 25 25 26 25 25 26 26 27 27 28 28 28 28 29 29 31 32 33 35 38 40 41 42 44 47 49 53 57 61 68 72 78 88 96 99 104 108 109 110 111 112 114 114 115 116 117 116 116 116 116 114 110 107 105 103 102 100 97 96 96 94 92 91 90 88 86 84 82 80 77 74 75 75 72 68 62 57 55 54
30 27 26 24 22 22 22 23 24 24 25 25 25 25 25 26 26 27 27 27 27 27 28 29 30 31 33 34 36 38 40 42 44 46 48 51 54 58 64 69 75 83 90 95 100 104 106 109 110 111 113 115 116 116 116 116 115 116 119 118 115 111 108 107 105 102 99 98 97 95 94 95 94 91 89 87 84 81 77 75 78 78 72 68 65 62 60 57
30 27 24 23 22 21 21 21 22 23 24 24 24 24 25 25 26 27 27 27 27 27 28 29 30 32 33 34 36 38 40 42 43 45 46 49 52 56 61 66 72 77 83 90 96 100 104 106 108 110 112 114 117 117 116 116 116 117 119 120 117 114 110 107 103 100 100 100 98 96 97 98 96 94 91 88 85 83 80 80 83 83 76 72 71 69 65 62
30 27 24 22 21 20 19 20 21 22 22 23 23 24 25 25 26 27 28 28 27 27 28 29 31 32 34 35 37 38 39 41 43 44 45 47 50 53 58 63 67 70 76 85 92 96 99 102 106 109 111 114 117 118 117 117 117 118 120 120 119 116 112 108 104 101 101 101 98 97 99 99 99 97 95 93 91 88 86 86 87 86 80 76 74 72 68 65
30 27 24 22 20 19 19 19 20 20 21 22 23 24 24 26 27 28 28 28 28 28 29 30 31 33 35 36 37 38 40 41 42 42 43 45 48 51 56 60 63 64 69 78 87 92 94 98 103 107 110 112 115 117 116 116 117 118 119 120 119 117 114 111 108 105 104 102 99 99 99 99 100 100 100 98 94 90 89 89 89 87 82 77 74 73 69 66
31 27 24 21 20 18 17 18 19 19 20 21 22 24 25 26 27 27 28 28 29 29 29 30 31 33 35 36 37 38 39 40 40 40 40 42 46 49 53 58 60 59 62 70 80 86 89 94 100 105 108 110 113 116 117 117 118 118 117 117 118 117 116 113 111 109 108 105 103 103 102 101 102 104 104 101 97 93 90 88 90 90 86 80 77 74 71 68
33 29 25 22 20 18 17 17 18 18 19 21 22 23 24 25 26 27 28 28 29 29 30 30 31 32 33 35 36 37 38 39 38 37 37 39 43 47 51 56 57 55 56 63 72 78 84 90 95 101 105 108 112 115 118 119 118 115 113 114 116 117 117 116 114 113 112 109 107 106 105 104 106 109 108 105 101 96 90 88 92 94 90 84 80 77 74 71
Wind_Direction
252 252 252 251 250 249 249 249 250 251 252 253 253 253 252 252 250 248 245 242 237 231 227 226 225 226 227 227 226 225 226 226 225 224 224 225 226 226 225 226 227 227 226 226 226 225 224 224 224 224 225 227 227 228 228 228 229 230 232 232 233 238 239 242 250 257 267 274 273 268 269 275 280 289 301 305 306 308 309 311 312 313 316 319 323 325 324 322
253 252 251 251 251 250 249 248 248 249 250 250 251 251 252 251 250 248 246 244 241 237 231 227 226 226 226 228 228 228 227 227 226 225 225 226 227 227 227 227 228 229 228 228 227 226 225 224 223 223 224 224 226 227 227 228 229 230 232 233 235 240 241 242 248 255 265 272 273 264 256 264 279 290 298 302 303 303 307 310 309 311 314 318 322 323 321 320
254 253 252 252 251 250 249 248 248 248 248 248 249 249 250 250 249 248 246 244 242 240 236 231 228 226 226 227 228 229 229 228 228 226 226 227 227 228 229 229 229 230 230 230 229 228 227 226 225 224 224 224 226 227 228 229 229 230 232 235 240 243 244 244 245 247 249 251 259 263 259 267 281 289 294 295 296 298 306 311 309 309 314 318 321 321 320 319
255 255 254 253 252 251 250 249 248 248 248 248 248 248 248 248 248 247 245 244 242 241 239 235 231 228 227 227 228 229 230 231 228 226 228 228 227 228 230 230 230 231 231 232 231 230 230 229 228 227 227 227 227 228 229 230 231 232 233 236 240 242 245 246 243 240 241 242 251 265 265 271 280 287 290 288 289 294 304 308 306 307 313 320 319 319 320 318
256 255 255 254 253 252 252 251 249 248 248 248 247 247 247 247 246 246 245 244 242 241 239 237 235 231 228 227 228 228 230 232 229 227 228 228 227 227 229 231 231 231 231 232 232 232 232 231 231 230 229 229 229 229 230 232 233 234 235 236 240 242 243 244 242 239 242 247 247 252 259 270 276 281 283 283 287 292 299 301 301 304 311 316 315 317 318 319
255 255 254 254 254 253 252 251 250 249 248 248 247 246 246 246 245 245 244 243 242 241 239 237 236 233 231 228 228 227 230 232 229 230 229 227 228 227 228 231 232 232 232 233 233 233 233 233 233 232 232 231 230 230 230 232 233 234 235 235 239 243 243 242 243 242 244 250 251 250 257 267 272 275 278 282 287 290 292 295 297 300 306 310 310 313 318 320
256 255 254 254 253 252 252 251 250 249 248 248 247 246 246 245 245 244 244 243 242 241 239 238 236 235 233 230 229 227 229 232 228 230 230 228 229 228 226 228 232 234 233 233 234 233 233 233 234 234 234 233 232 232 232 232 233 232 233 232 233 238 241 241 243 242 242 244 249 255 259 262 266 271 276 281 285 288 292 293 293 297 304 306 305 310 317 321
258 257 255 254 253 252 251 251 250 249 248 248 247 246 245 245 244 244 243 243 242 241 240 239 237 236 234 232 230 228 230 231 227 229 231 229 230 230 227 226 228 232 234 233 233 234 234 233 234 234 234 234 234 234 234 234 234 233 232 231 230 232 236 238 240 239 239 241 248 254 256 258 262 267 273 280 283 286 290 290 289 295 301 301 298 305 317 322
260 258 257 256 255 253 252 251 250 249 248 248 247 246 245 245 244 243 243 242 242 241 240 240 239 237 235 233 232 230 231 231 228 229 230 229 230 231 230 227 226 228 232 234 233 233 234 234 234 235 235 236 236 236 236 236 236 235 234 233 232 232 233 235 237 238 239 244 248 251 254 257 260 265 271 276 278 281 285 286 287 293 296 293 290 301 317 324
260 259 258 257 256 255 254 252 251 250 249 248 247 246 245 245 244 243 243 242 241 241 240 240 239 238 236 235 233 233 232 231 230 229 229 229 229 230 231 230 227 225 227 232 233 232 233 234 235 236 236 236 236 236 236 236 237 236 236 235 233 233 234 235 237 238 240 245 247 250 255 257 258 263 268 272 274 276 279 281 285 291 291 285 283 297 317 324
261 259 258 257 256 256 255 254 252 251 250 249 248 247 246 245 244 243 243 242 241 240 240 239 239 238 237 236 234 234 234 232 232 230 228 229 228 229 231 231 229 227 226 229 232 232 231 233 235 235 236 236 236 237 237 238 238 238 237 236 236 235 236 236 237 239 241 245 248 250 254 255 256 259 263 268 269 271 275 277 282 286 284 275 276 293 315 324
261 260 259 257 256 255 255 254 253 252 251 250 249 248 247 246 245 244 243 242 241 240 240 239 238 237 237 236 235 235 234 233 233 231 229 229 229 228 229 231 231 229 227 227 229 232 231 230 232 235 236 236 237 237 238 238 238 239 238 238 237 237 238 238 238 239 242 245 247 249 252 253 254 255 257 260 264 272 275 271 275 280 276 267 268 287 310 324
261 260 259 258 257 256 255 254 253 252 252 251 250 249 248 247 246 245 243 242 241 241 240 239 238 237 236 236 236 235 235 234 234 233 231 229 229 229 228 230 231 230 229 227 228 230 230 229 228 232 235 236 236 237 237 238 238 239 239 239 238 239 239 239 239 241 242 244 246 248 249 251 251 252 253 254 259 269 270 263 267 275 270 259 260 278 304 322
260 259 258 257 257 256 255 254 253 252 252 251 250 249 248 247 246 245 244 243 242 241 240 239 238 238 236 236 236 235 235 235 234 234 233 230 230 229 229 229 230 230 230 228 228 229 230 228 226 228 233 235 235 236 237 238 239 240 240 240 240 240 240 240 240 241 241 243 244 245 247 248 248 248 250 252 255 261 260 256 266 272 264 252 251 266 296 319
261 259 258 257 256 255 255 254 254 253 252 251 250 249 248 248 247 246 245 244 242 241 241 240 239 238 237 236 235 235 235 235 235 235 234 232 230 229 229 229 229 229 229 229 229 229 229 229 226 225 229 234 234 236 237 237 238 239 240 240 240 240 240 240 241 241 242 243 243 244 245 246 246 246 248 249 253 254 249 249 261 265 258 248 245 252 282 313
261 260 258 257 256 255 254 253 253 252 252 251 251 250 249 248 247 246 245 244 243 242 241 240 239 238 237 237 236 235 235 235 235 235 235 234 232 230 229 229 229 229 228 228 228 228 229 229 228 225 225 231 233 234 237 236 237 239 238 239 240 240 241 241 242 242 242 243 243 243 244 245 245 246 245 245 251 251 241 244 257 260 253 246 240 241 258 297
261 260 259 258 257 255 254 253 252 252 251 251 250 250 249 248 247 247 246 245 244 242 241 240 239 239 237 237 237 236 235 235 235 235 235 234 233 232 230 228 228 229 228 228 228 228 228 228 228 226 224 227 231 234 237 235 232 234 234 235 237 238 239 240 241 242 242 243 243 242 243 243 243 243 241 242 248 245 234 240 250 251 247 244 239 233 240 268
260 260 259 258 256 255 255 254 253 252 251 250 250 249 249 248 247 247 246 245 244 243 242 241 240 239 238 237 237 236 235 235 235 235 235 235 234 233 232 229 228 228 228 228 228 227 227 227 227 227 225 227 229 231 234 233 228 230 233 234 235 236 237 239 240 240 241 241 242 242 242 242 242 241 239 240 240 234 227 231 237 234 237 245 243 234 235 247
259 259 258 257 256 255 254 254 253 252 251 250 250 249 248 248 247 247 246 245 245 244 243 242 241 240 238 238 237 236 235 235 234 235 235 235 234 233 233 231 229 228 228 227 227 227 226 226 226 226 226 227 227 225 229 232 230 232 234 235 235 235 236 237 238 238 239 240 241 241 241 241 242 240 239 236 230 224 219 220 227 224 225 236 242 243 239 229
258 257 257 256 256 255 254 253 253 252 251 251 250 249 248 248 247 246 246 245 245 244 243 242 242 241 239 239 238 237 236 235 234 234 235 235 235 234 233 232 230 229 228 227 227 227 226 226 225 226 226 226 226 223 226 230 231 232 234 235 235 234 234 234 235 235 235 237 238 238 238 238 238 236 236 228 221 220 214 212 220 220 218 220 228 242 240 225
257 256 256 255 255 254 253 253 252 251 251 250 250 249 248 248 247 246 246 245 244 244 243 242 242 241 240 239 239 238 236 235 235 234 234 234 235 234 233 233 231 230 229 227 227 226 226 225 224 226 226 226 226 225 226 228 230 231 233 234 233 231 231 231 231 232 231 231 232 234 234 233 231 229 224 218 217 217 210 207 211 213 214 212 218 236 236 223
256 256 255 254 254 254 253 252 251 251 250 250 250 249 248 248 247 246 246 246 245 244 243 242 242 241 241 239 239 239 237 236 235 234 234 234 234 234 234 233 232 230 230 228 227 227 226 224 224 226 227 226 225 225 226 226 227 229 231 232 229 226 228 228 228 229 227 226 228 229 230 229 227 222 214 210 212 210 205 206 208 210 210 207 211 227 232 228
255 255 254 254 253 253 253 252 252 251 250 250 249 249 248 248 247 247 246 246 245 245 243 243 242 241 241 240 239 239 238 237 235 235 235 234 234 233 233 234 232 231 230 229 228 227 225 224 224 226 226 225 225 225 226 225 225 225 228 232 230 225 226 227 227 227 225 224 224 223 223 222 220 218 211 208 208 203 201 205 208 211 208 202 202 209 223 234
256 255 254 254 254 254 253 253 252 252 251 251 250 249 249 248 248 247 246 246 245 245 244 243 242 241 241 240 239 239 238 238 236 235 235 234 233 233 232 233 233 231 230 229 228 227 225 224 224 225 226 225 225 225 225 225 224 222 225 231 230 225 223 223 224 224 223 223 221 218 217 214 211 211 208 207 207 203 198 199 206 212 209 202 199 198 214 231
257 257 256 256 255 255 255 255 254 254 253 253 252 251 251 250 249 248 247 246 246 246 245 244 243 242 241 240 240 239 238 238 236 235 236 235 233 233 232 232 232 232 230 229 228 227 225 224 225 225 225 225 225 225 224 225 224 222 223 228 230 227 223 220 220 220 219 220 217 214 213 210 207 206 206 207 208 207 200 197 203 211 209 203 200 199 210 226
262 260 260 259 258 257 257 257 256 255 255 255 254 253 253 252 251 250 249 248 246 246 246 245 244 243 241 241 240 239 238 237 236 235 236 236 234 233 232 231 232 231 230 229 227 226 225 225 225 225 225 225 224 224 224 225 225 223 223 227 230 229 225 220 218 216 217 217 214 212 209 207 204 203 204 205 205 205 201 197 201 209 208 203 201 202 207 216
267 265 263 261 260 259 259 258 257 256 256 255 255 254 254 253 252 251 250 249 247 246 247 246 244 243 242 241 240 239 238 237 236 235 235 236 234 233 232 232 231 231 230 229 227 226 225 225 226 225 225 225 224 224 224 224 224 223 224 226 227 229 227 222 217 215 215 215 212 208 207 205 202 202 203 203 201 200 199 198 199 204 206 204 201 205 209 211
270 267 264 263 262 261 260 259 258 257 257 256 256 255 255 254 253 252 251 250 247 246 246 246 244 243 242 241 241 240 238 237 237 236 235 235 234 233 233 232 231 231 230 230 228 226 225 224 225 225 225 224 223 223 224 224 223 223 224 225 226 227 227 225 219 216 214 213 210 206 207 206 202 203 204 203 202 201 199 199 198 198 204 207 203 204 210 211
275 271 269 268 266 263 261 260 259 259 258 258 257 256 255 255 254 254 253 251 249 247 246 245 245 244 242 241 241 240 239 237 236 236 235 235 234 233 233 232 231 231 231 229 229 227 226 224 225 225 225 223 223 223 223 223 222 222 223 224 225 225 225 225 221 217 213 211 211 207 207 206 204 205 205 202 202 202 201 200 200 198 202 208 205 203 207 210
282 278 275 272 269 266 263 262 260 260 260 259 258 257 257 256 256 255 254 253 252 250 248 246 245 245 243 241 240 240 239 238 236 235 235 235 234 233 233 232 231 231 230 229 228 228 227 225 225 226 226 224 223 223 223 223 223 224 224 224 225 224 224 224 223 220 212 208 213 211 207 207 207 207 205 202 202 203 201 201 201 199 200 205 207 206 207 208
290 284 279 275 272 268 266 264 262 261 261 260 260 259 259 258 257 256 256 254 253 252 250 247 245 244 244 242 240 240 239 238 237 235 235 235 234 234 233 232 231 230 230 228 227 227 227 225 224 225 225 225 224 224 224 224 223 225 224 224 225 224 223 223 222 220 210 203 212 215 209 208 209 208 207 205 204 205 203 201 202 200 199 203 205 206 209 208
296 289 283 278 274 270 268 267 265 263 261 261 260 260 259 259 258 257 256 255 254 253 252 249 247 245 244 242 241 240 239 238 236 235 234 234 234 233 233 232 231 230 230 229 227 227 226 225 224 223 223 223 223 224 225 223 223 224 225 224 224 223 224 223 222 220 210 203 212 217 212 206 206 209 210 207 206 207 206 203 204 202 200 203 204 205 210 210
301 294 288 282 277 273 271 269 267 266 264 263 261 261 260 259 259 257 256 256 255 253 252 251 249 247 244 243 241 240 239 237 236 235 234 233 233 233 233 232 231 230 230 229 228 227 226 226 224 224 224 223 222 223 223 222 223 224 225 225 223 222 224 224 222 220 214 209 213 218 213 205 205 211 212 209 207 208 208 205 204 204 203 205 204 204 209 212
304 298 293 288 284 280 277 274 273 271 269 267 266 264 263 261 260 259 258 257 256 254 252 251 250 248 246 244 241 240 239 237 236 235 234 233 232 232 232 231 231 230 229 229 228 227 226 225 225 224 224 224 222 222 222 221 222 223 224 224 222 221 223 224 223 219 216 214 216 218 213 204 205 213 214 212 210 208 209 208 205 205 205 205 205 205 208 213
303 299 295 292 288 285 282 279 277 275 273 272 270 268 267 265 264 263 261 259 257 255 252 250 249 247 246 244 241 240 239 236 235 234 233 232 232 232 232 231 231 230 230 229 228 227 226 225 224 224 224 224 221 220 222 222 222 222 222 223 222 219 221 224 223 220 217 215 215 216 212 204 205 212 215 213 211 210 210 210 208 206 205 204 205 207 208 211
301 298 295 292 288 286 283 280 279 277 275 274 273 271 270 268 267 266 263 260 259 256 253 251 249 247 245 243 241 240 239 235 233 233 232 231 231 231 231 230 230 230 230 229 228 227 226 225 224 223 223 223 221 219 221 223 222 222 222 222 221 219 219 222 223 220 217 215 215 215 211 206 205 210 215 213 210 211 212 212 211 207 205 205 207 207 205 206
300 296 293 290 288 285 282 280 278 277 276 275 274 273 272 271 269 266 264 262 260 258 255 253 251 248 245 242 241 240 239 235 232 233 232 230 230 231 230 229 229 230 229 229 228 226 226 225 224 223 223 224 223 220 221 224 223 222 222 222 220 219 218 221 222 220 217 214 215 217 214 210 207 209 215 215 210 212 216 214 211 209 206 206 209 207 203 204
299 295 292 289 286 284 281 279 277 276 275 274 274 273 272 271 269 266 264 263 260 259 257 253 251 249 246 243 241 240 240 236 232 234 233 229 229 230 229 227 227 228 229 229 228 226 225 225 225 224 222 222 223 221 222 224 225 223 223 222 221 219 218 219 221 220 217 214 215 216 215 213 210 209 215 216 211 212 217 216 212 212 209 206 210 210 206 207
300 296 293 290 286 282 280 278 277 276 274 273 273 272 271 269 268 267 265 263 261 259 258 254 252 251 248 245 241 239 240 238 232 232 233 229 227 228 227 226 226 227 228 228 228 226 224 224 225 224 222 221 221 221 220 223 225 224 223 223 223 222 220 219 220 219 217 215 215 216 216 214 213 212 214 217 214 211 217 218 216 216 211 205 210 213 209 209
304 299 295 292 288 284 281 278 277 275 273 273 272 271 269 268 267 267 265 263 261 259 259 257 253 252 250 247 243 239 239 239 234 231 232 230 227 226 226 225 224 226 227 227 227 226 224 223 224 224 222 220 220 221 219 220 223 223 222 222 223 223 222 221 220 220 218 215 214 216 216 215 215 215 215 216 217 213 215 219 219 218 213 206 209 213 211 210
310 304 299 295 291 287 284 281 278 275 274 272 271 271 270 269 268 266 264 262 261 259 259 258 255 253 251 249 247 242 238 239 239 235 232 229 227 226 225 224 223 224 225 226 226 226 224 222 222 223 222 220 219 219 219 219 221 222 221 221 221 221 222 221 220 221 219 217 215 216 216 215 216 217 215 215 218 216 214 218 219 220 215 208 209 212 211 212
315 309 304 300 295 291 286 283 280 278 275 273 272 272 271 270 267 265 262 260 259 259 258 257 255 253 252 250 248 246 241 240 241 239 235 230 226 225 224 223 222 223 224 225 225 225 225 222 221 223 223 221 219 219 218 218 219 221 221 220 220 220 221 220 219 219 219 218 217 216 217 216 216 217 215 214 217 217 216 217 219 221 219 212 210 211 210 211
317 312 307 302 297 292 288 284 282 279 277 276 275 273 270 268 266 263 261 258 257 257 255 255 254 253 251 251 248 246 245 244 242 242 239 232 226 224 224 223 223 223 223 224 224 224 223 222 220 221 222 221 220 220 219 218 220 221 221 220 219 219 220 219 217 217 218 217 217 217 217 218 218 217 216 216 218 218 218 219 219 222 222 217 213 213 211 211
319 313 309 303 297 292 287 284 282 278 277 276 274 272 269 265 262 260 259 258 256 256 254 253 254 253 251 251 250 247 246 246 246 245 243 237 228 225 224 222 223 225 223 223 224 223 222 222 220 220 221 220 219 219 218 218 219 221 223 222 221 219 220 220 218 216 217 216 216 216 217 219 219 218 217 218 220 219 220 221 221 221 224 222 218 216 214 213
320 315 310 305 299 293 287 283 281 278 275 274 271 270 266 262 260 258 257 257 256 256 255 254 254 254 252 253 253 251 247 247 248 247 246 242 234 227 225 223 223 226 225 223 224 223 222 222 220 219 220 220 219 218 217 216 217 219 221 222 221 220 220 220 220 219 217 216 216 216 216 218 220 219 218 218 220 220 220 222 223 221 222 224 221 218 218 218
321 316 311 307 300 292 287 283 280 277 275 274 271 268 265 261 259 258 257 258 258 259 260 259 258 258 256 256 256 256 253 250 249 248 247 246 240 232 228 224 223 226 227 224 224 224 223 222 221 220 220 220 220 219 218 217 216 216 218 220 220 220 219 219 219 219 218 217 217 216 216 218 219 219 218 218 218 220 220 221 224 223 221 223 223 221 221 222
324 318 313 308 301 294 287 282 278 275 273 272 270 267 264 261 259 259 259 260 262 263 265 266 265 264 262 261 260 259 258 255 253 250 247 247 244 238 234 228 224 226 228 226 224 224 223 222 222 220 220 220 220 220 218 217 217 216 218 219 218 218 219 219 218 218 218 218 217 216 217 219 219 219 219 219 218 219 220 222 226 224 220 221 224 224 223 223
328 322 316 311 303 296 288 281 277 274 271 269 267 264 262 260 258 259 260 261 262 264 266 268 269 268 266 265 263 261 260 258 256 254 251 249 247 243 239 234 227 225 227 228 227 224 223 222 222 221 220 220 220 220 218 217 216 216 218 219 219 218 218 219 220 219 219 218 217 216 217 219 220 220 220 221 220 219 220 222 226 225 221 219 223 223 222 222
332 326 321 314 306 298 289 281 275 272 269 267 264 261 259 258 257 257 258 260 261 262 265 267 268 269 268 267 266 264 262 261 259 257 255 252 250 247 244 240 233 227 226 228 228 226 223 222 221 221 221 221 221 221 219 218 217 216 217 219 219 218 217 217 218 219 220 220 217 216 217 218 220 220 220 220 220 219 219 221 225 226 223 220 222 223 222 223
337 331 324 318 310 301 292 284 278 273 269 266 262 260 258 256 256 256 256 258 260 261 263 265 266 267 267 267 267 266 265 264 262 260 258 255 253 250 247 245 238 230 226 228 229 227 225 222 221 221 221 221 221 222 221 219 218 217 217 218 219 219 217 216 216 216 218 219 218 217 218 218 220 221 220 220 220 219 219 222 225 227 226 223 223 224 224 224
340 336 330 323 315 305 296 287 280 276 272 268 264 261 259 257 257 257 257 257 259 261 262 264 265 265 266 267 267 267 266 266 265 262 260 257 255 252 250 248 244 234 226 227 229 228 226 223 221 220 220 220 220 222 221 220 218 217 217 217 218 218 218 217 216 216 216 217 216 216 217 217 219 221 221 220 220 219 219 222 225 227 227 225 225 226 226 226
342 339 335 328 319 310 300 290 284 279 273 270 267 265 263 262 260 260 260 260 261 263 265 267 267 268 269 269 270 270 270 270 268 266 263 260 256 253 250 250 248 239 229 226 228 227 226 224 222 220 220 219 219 220 221 220 219 217 217 217 218 218 218 216 216 217 216 215 215 215 216 217 218 221 220 219 219 219 219 221 225 227 227 226 226 226 227 227
Height
10927 10927 10928 10929 10930 10931 10932 10933 10934 10935 10937 10938 10939 10940 10941 10943 10945 10946 10948 10950 10951 10952 10954 10955 10956 10957 10958 10959 10959 10960 10961 10963 10964 10967 10970 10971 10972 10975 10978 10980 10981 10983 10985 10987 10989 10992 10995 10997 11000 11002 11004 11005 11007 11008 11009 11010 11011 11012 11013 11014 11015 11016 11018 11020 11020 11020 11022 11025 11027 11030 11030 11027 11026 11026 11024 11021 11019 11019 11019 11018 11017 11015 11014 11011 11009 11008 11007 11006
10922 10923 10924 10924 10925 10926 10927 10929 10930 10931 10932 10933 10934 10935 10937 10938 10940 10942 10944 10946 10947 10948 10950 10951 10953 10954 10955 10956 10957 10958 10958 10960 10961 10963 10966 10967 10969 10972 10974 10976 10978 10979 10982 10984 10986 10988 10991 10993 10996 10998 11000 11001 11003 11004 11006 11007 11008 11010 11010 11011 11012 11014 11016 11017 11018 11019 11021 11023 11025 11026 11027 11026 11025 11025 11024 11022 11018 11018 11019 11018 11017 11015 11014 11012 11010 11008 11007 11006
10917 10918 10918 10919 10920 10921 10922 10924 10925 10926 10927 10928 10929 10930 10932 10933 10935 10937 10938 10941 10942 10944 10946 10947 10949 10950 10952 10953 10954 10955 10955 10956 10958 10960 10962 10964 10966 10968 10970 10972 10974 10976 10978 10980 10982 10985 10987 10990 10992 10994 10996 10998 11000 11002 11003 11004 11006 11007 11008 11009 11010 11012 11014 11015 11016 11018 11019 11021 11023 11023 11023 11023 11023 11023 11024 11024 11021 11018 11018 11017 11015 11014 11014 11012 11010 11009 11007 11006
10912 10913 10913 10914 10915 10916 10917 10918 10920 10920 10921 10923 10924 10925 10926 10928 10929 10931 10933 10935 10937 10939 10941 10942 10944 10946 10948 10949 10950 10951 10953 10953 10954 10957 10959 10960 10963 10965 10966 10968 10970 10972 10974 10976 10979 10982 10984 10987 10989 10992 10994 10996 10998 11000 11001 11002 11004 11006 11007 11008 11009 11010 11012 11013 11015 11017 11017 11018 11021 11021 11020 11021 11022 11021 11023 11024 11022 11020 11018 11015 11014 11014 11012 11011 11010 11008 11008 11006
10907 10907 10908 10908 10909 10910 10911 10913 10914 10915 10916 10917 10918 10919 10921 10922 10923 10925 10927 10929 10931 10933 10935 10938 10939 10941 10943 10945 10946 10948 10949 10949 10951 10954 10954 10956 10959 10961 10963 10964 10966 10968 10970 10972 10975 10978 10981 10984 10986 10988 10990 10993 10995 10997 10998 11000 11002 11003 11005 11007 11008 11008 11010 11012 11013 11016 11016 11017 11020 11019 11019 11022 11022 11021 11021 11022 11021 11021 11019 11015 11014 11013 11012 11011 11010 11009 11008 11007
10901 10902 10902 10902 10903 10904 10905 10906 10908 10909 10910 10911 10912 10913 10915 10916 10917 10919 10921 10923 10925 10927 10930 10932 10934 10936 10938 10940 10942 10944 10945 10945 10947 10950 10950 10953 10955 10957 10960 10961 10962 10964 10967 10969 10971 10974 10977 10980 10982 10984 10987 10989 10991 10993 10995 10997 10999 11000 11003 11005 11007 11007 11009 11010 11012 11014 11015 11017 11019 11018 11019 11022 11021 11019 11019 11020 11020 11020 11019 11016 11015 11013 11012 11011 11010 11009 11008 11007
10896 10896 10896 10896 10897 10898 10899 10900 10901 10902 10903 10904 10906 10907 10908 10910 10911 10913 10915 10917 10919 10921 10923 10926 10928 10930 10932 10935 10937 10939 10941 10940 10943 10946 10947 10949 10951 10953 10955 10957 10959 10960 10963 10965 10968 10970 10974 10976 10978 10980 10983 10985 10988 10990 10992 10993 10994 10996 10999 11002 11005 11005 11006 11008 11009 11011 11013 11015 11016 11016 11019 11021 11019 11017 11016 11017 11018 11018 11017 11016 11015 11013 11012 11011 11010 11009 11008 11008
10890 10890 10890 10890 10891 10892 10892 10893 10894 10895 10896 10898 10899 10900 10902 10903 10905 10907 10909 10911 10913 10915 10917 10919 10922 10924 10927 10929 10931 10935 10936 10935 10940 10942 10942 10945 10946 10948 10950 10953 10955 10956 10959 10961 10963 10966 10969 10972 10973 10976 10979 10981 10984 10986 10988 10989 10990 10992 10995 10998 11001 11002 11003 11005 11006 11008 11010 11012 11013 11014 11017 11019 11017 11016 11015 11015 11017 11017 11015 11015 11014 11013 11012 11011 11010 11009 11009 11008
10883 10884 10884 10884 10884 10885 10886 10887 10887 10888 10890 10891 10892 10894 10895 10897 10899 10900 10902 10904 10906 10908 10911 10913 10916 10918 10921 10923 10926 10929 10929 10930 10936 10937 10937 10941 10942 10944 10945 10948 10951 10953 10955 10956 10959 10962 10964 10967 10970 10972 10975 10978 10980 10982 10984 10985 10986 10989 10992 10995 10997 10999 11000 11002 11003 11005 11007 11009 11010 11012 11014 11016 11015 11015 11015 11014 11015 11015 11015 11013 11013 11013 11012 11011 11010 11009 11009 11008
10876 10876 10877 10877 10877 10878 10879 10879 10880 10881 10882 10884 10885 10887 10888 10890 10892 10894 10896 10898 10899 10902 10904 10907 10909 10912 10914 10917 10921 10923 10923 10927 10930 10930 10933 10936 10938 10939 10941 10943 10946 10949 10950 10952 10955 10958 10960 10963 10966 10969 10971 10973 10975 10977 10978 10980 10982 10985 10987 10989 10992 10995 10997 10999 11000 11003 11005 11006 11007 11009 11011 11012 11013 11014 11014 11014 11014 11014 11014 11013 11012 11012 11011 11010 11010 11009 11009 11008
10868 10868 10869 10869 10870 10870 10871 10872 10873 10874 10875 10877 10878 10880 10881 10883 10885 10887 10889 10890 10892 10895 10897 10899 10902 10905 10907 10910 10914 10916 10917 10921 10922 10924 10928 10930 10933 10935 10937 10938 10941 10944 10946 10948 10950 10953 10956 10959 10962 10964 10965 10967 10969 10971 10974 10976 10979 10980 10983 10985 10988 10991 10993 10995 10998 11000 11002 11003 11004 11007 11009 11009 11011 11013 11013 11014 11014 11013 11014 11012 11011 11011 11011 11010 11010 11009 11009 11009
10859 10860 10860 10861 10862 10862 10863 10864 10865 10866 10868 10869 10871 10872 10874 10876 10877 10879 10881 10883 10885 10887 10890 10892 10895 10897 10900 10903 10907 10909 10911 10914 10915 10918 10922 10925 10928 10930 10932 10934 10936 10939 10942 10944 10946 10948 10952 10955 10958 10959 10960 10963 10965 10967 10970 10971 10973 10975 10978 10981 10985 10988 10989 10992 10995 10998 10999 11000 11002 11005 11006 11007 11009 11011 11011 11013 11013 11013 11012 11012 11010 11010 11010 11010 11010 11009 11009 11009
10849 10850 10851 10852 10853 10854 10854 10855 10856 10858 10859 10861 10863 10864 10866 10868 10870 10872 10874 10876 10878 10880 10882 10885 10887 10890 10893 10896 10899 10902 10904 10906 10908 10911 10915 10919 10922 10925 10928 10929 10931 10934 10937 10940 10942 10944 10947 10951 10953 10954 10956 10959 10961 10963 10964 10966 10968 10971 10975 10977 10981 10983 10985 10988 10992 10995 10996 10997 11000 11002 11003 11005 11007 11009 11009 11011 11013 11012 11011 11011 11010 11009 11009 11009 11009 11009 11009 11009
10839 10840 10840 10841 10843 10844 10845 10846 10847 10849 10850 10852 10854 10856 10858 10859 10861 10863 10866 10868 10870 10872 10875 10877 10880 10882 10886 10888 10891 10895 10896 10899 10902 10905 10908 10913 10916 10919 10922 10924 10926 10929 10932 10935 10938 10940 10942 10945 10949 10951 10952 10953 10956 10958 10959 10962 10965 10968 10971 10974 10976 10978 10981 10986 10988 10990 10992 10994 10997 10998 11000 11002 11005 11007 11007 11008 11011 11011 11010 11010 11009 11009 11009 11009 11009 11009 11008 11009
10827 10828 10830 10830 10831 10833 10834 10836 10837 10839 10841 10843 10845 10847 10849 10850 10852 10855 10857 10859 10862 10864 10867 10869 10872 10875 10878 10881 10884 10887 10889 10892 10895 10897 10901 10905 10909 10912 10916 10919 10921 10924 10926 10930 10933 10935 10938 10941 10944 10947 10949 10950 10953 10954 10954 10958 10961 10964 10967 10968 10971 10974 10978 10982 10984 10986 10989 10991 10994 10996 10998 11000 11002 11004 11005 11006 11007 11008 11008 11009 11010 11009 11009 11009 11009 11008 11008 11008
10816 10817 10818 10819 10820 10821 10823 10824 10826 10829 10831 10833 10835 10837 10839 10841 10843 10845 10848 10850 10853 10856 10858 10861 10864 10866 10870 10873 10876 10879 10882 10885 10888 10890 10894 10897 10901 10906 10910 10913 10915 10918 10921 10924 10927 10930 10933 10936 10939 10942 10945 10947 10949 10949 10950 10955 10958 10960 10962 10963 10967 10971 10974 10977 10979 10983 10986 10988 10990 10993 10995 10997 10999 11002 11003 11004 11005 11006 11006 11008 11009 11009 11009 11009 11008 11008 11008 11008
10805 10805 10806 10807 10808 10809 10811 10813 10814 10817 10820 10822 10824 10827 10829 10831 10834 10836 10839 10841 10843 10846 10849 10852 10855 10857 10862 10866 10867 10871 10875 10878 10880 10883 10886 10889 10894 10899 10901 10905 10909 10912 10915 10919 10922 10925 10928 10931 10934 10938 10942 10944 10945 10946 10948 10952 10953 10953 10954 10958 10962 10966 10970 10973 10976 10979 10981 10984 10986 10989 10992 10994 10996 10999 11000 11002 11003 11005 11005 11006 11008 11008 11008 11008 11008 11007 11007 11007
10794 10794 10794 10795 10796 10797 10799 10801 10803 10805 10807 10810 10812 10815 10818 10820 10823 10827 10829 10831 10833 10837 10840 10843 10846 10848 10854 10857 10858 10863 10867 10870 10873 10875 10878 10881 10886 10890 10893 10898 10903 10906 10909 10913 10917 10919 10922 10926 10929 10933 10938 10940 10942 10944 10944 10944 10945 10947 10951 10955 10958 10962 10966 10969 10971 10975 10977 10980 10983 10985 10988 10990 10993 10995 10997 10999 11001 11003 11004 11005 11007 11007 11008 11008 11007 11007 11006 11007
10782 10782 10781 10782 10784 10785 10787 10789 10791 10793 10795 10798 10800 10803 10806 10808 10812 10816 10817 10820 10823 10827 10830 10833 10836 10840 10846 10848 10850 10854 10858 10861 10865 10867 10870 10874 10878 10882 10885 10890 10895 10899 10902 10907 10910 10913 10917 10920 10925 10930 10934 10933 10934 10937 10937 10937 10942 10946 10949 10951 10955 10960 10963 10965 10968 10971 10973 10976 10979 10982 10985 10987 10990 10992 10994 10997 10998 11000 11001 11003 11005 11006 11007 11007 11007 11006 11006 11006
10770 10770 10769 10770 10770 10772 10774 10776 10778 10780 10782 10785 10787 10790 10793 10796 10801 10804 10804 10808 10813 10815 10820 10824 10826 10831 10837 10839 10840 10844 10849 10853 10856 10860 10863 10866 10869 10873 10877 10882 10887 10892 10896 10900 10903 10906 10910 10915 10922 10925 10925 10923 10926 10931 10932 10934 10940 10943 10945 10948 10953 10957 10959 10961 10964 10967 10970 10973 10976 10978 10981 10984 10987 10989 10992 10994 10996 10997 10998 10999 11002 11004 11004 11004 11005 11006 11006 11005
10757 10757 10757 10757 10758 10759 10761 10763 10765 10768 10770 10772 10774 10778 10781 10783 10788 10792 10792 10796 10801 10803 10808 10813 10816 10821 10826 10829 10830 10834 10840 10843 10847 10852 10854 10857 10860 10864 10869 10873 10879 10884 10888 10892 10895 10899 10905 10912 10918 10916 10915 10917 10922 10927 10928 10932 10937 10939 10942 10945 10949 10953 10955 10957 10960 10963 10966 10969 10972 10974 10977 10980 10983 10986 10988 10991 10993 10995 10995 10997 10999 11001 11001 11003 11005 11005 11006 11005
10743 10744 10744 10745 10745 10746 10747 10750 10752 10755 10757 10758 10762 10765 10768 10771 10775 10779 10781 10783 10788 10791 10796 10801 10805 10810 10814 10818 10821 10824 10830 10834 10839 10843 10845 10849 10851 10854 10861 10865 10870 10876 10879 10884 10888 10894 10901 10907 10909 10906 10907 10912 10917 10921 10924 10929 10933 10936 10939 10940 10944 10949 10950 10953 10956 10958 10962 10966 10968 10971 10974 10977 10980 10983 10985 10987 10990 10992 10993 10994 10997 10998 11000 11002 11003 11005 11005 11004
10730 10731 10731 10732 10733 10733 10734 10737 10739 10742 10744 10746 10749 10752 10755 10759 10762 10766 10769 10772 10775 10779 10784 10788 10793 10799 10802 10806 10811 10814 10819 10824 10829 10834 10836 10839 10841 10846 10854 10856 10860 10867 10870 10876 10881 10887 10895 10899 10898 10897 10900 10907 10911 10915 10919 10923 10928 10932 10934 10934 10939 10944 10946 10949 10952 10954 10958 10961 10965 10968 10970 10974 10977 10980 10983 10985 10987 10989 10991 10992 10994 10996 10998 11000 11001 11003 11004 11004
10718 10718 10719 10720 10721 10721 10722 10725 10728 10729 10731 10734 10737 10739 10743 10747 10750 10753 10757 10760 10763 10766 10770 10776 10781 10787 10790 10794 10798 10803 10808 10811 10818 10825 10826 10827 10832 10839 10845 10846 10851 10857 10862 10867 10872 10878 10886 10888 10888 10889 10895 10901 10905 10909 10914 10918 10922 10927 10929 10929 10933 10938 10942 10945 10947 10951 10954 10957 10961 10964 10966 10969 10973 10976 10979 10981 10983 10986 10988 10990 10991 10993 10995 10997 10997 10999 11001 11002
10707 10707 10708 10708 10710 10711 10711 10714 10717 10718 10721 10723 10725 10728 10731 10735 10738 10741 10745 10748 10752 10755 10757 10764 10770 10773 10777 10781 10785 10790 10795 10799 10807 10815 10813 10815 10824 10830 10834 10837 10841 10847 10852 10857 10862 10869 10876 10878 10879 10884 10889 10894 10899 10904 10908 10912 10916 10921 10924 10924 10927 10932 10937 10941 10943 10947 10951 10953 10957 10959 10962 10966 10969 10973 10975 10977 10980 10983 10985 10987 10988 10991 10993 10994 10995 10997 10999 11001
10697 10698 10698 10699 10700 10701 10701 10703 10706 10708 10710 10711 10713 10717 10719 10723 10725 10727 10733 10734 10740 10746 10745 10751 10757 10757 10763 10769 10771 10775 10781 10787 10795 10800 10801 10805 10813 10819 10824 10828 10831 10835 10840 10845 10851 10860 10867 10869 10871 10877 10882 10886 10892 10897 10902 10906 10911 10916 10919 10920 10922 10926 10932 10936 10940 10944 10947 10949 10953 10956 10960 10963 10965 10969 10971 10973 10977 10979 10982 10985 10986 10988 10991 10992 10993 10995 10998 11000
10688 10688 10689 10688 10689 10691 10692 10692 10694 10697 10698 10698 10702 10705 10706 10710 10711 10714 10719 10719 10728 10736 10732 10736 10741 10743 10751 10755 10756 10761 10769 10775 10780 10786 10791 10794 10801 10808 10813 10817 10820 10824 10828 10834 10843 10852 10858 10860 10863 10869 10874 10879 10887 10892 10896 10900 10904 10910 10912 10913 10915 10920 10926 10932 10937 10940 10942 10945 10950 10954 10956 10959 10961 10964 10966 10969 10973 10976 10979 10982 10984 10986 10988 10989 10991 10992 10995 10997
10678 10678 10678 10678 10679 10681 10682 10682 10684 10685 10687 10688 10690 10693 10694 10697 10698 10701 10704 10705 10714 10721 10718 10721 10725 10730 10739 10741 10742 10748 10755 10761 10766 10773 10779 10781 10788 10796 10800 10804 10809 10813 10818 10826 10835 10842 10846 10851 10855 10860 10865 10872 10880 10884 10887 10891 10897 10902 10903 10905 10910 10915 10921 10928 10933 10936 10939 10942 10946 10950 10953 10956 10959 10960 10963 10967 10971 10974 10977 10979 10981 10984 10985 10987 10989 10990 10991 10994
10670 10669 10670 10670 10671 10672 10672 10673 10675 10675 10677 10679 10679 10681 10682 10683 10686 10688 10689 10693 10700 10703 10705 10711 10712 10716 10725 10726 10729 10735 10741 10747 10753 10760 10765 10767 10775 10783 10785 10792 10799 10803 10810 10819 10826 10831 10837 10843 10844 10848 10857 10865 10871 10874 10878 10883 10889 10892 10895 10900 10904 10910 10916 10922 10927 10931 10934 10939 10943 10947 10949 10952 10956 10957 10961 10965 10968 10971 10973 10975 10978 10980 10982 10984 10986 10988 10989 10991
10663 10663 10663 10663 10662 10663 10663 10664 10667 10667 10668 10669 10669 10670 10671 10672 10674 10675 10677 10682 10685 10686 10692 10699 10699 10702 10708 10711 10717 10723 10726 10732 10740 10747 10752 10754 10763 10769 10772 10781 10788 10791 10797 10807 10815 10821 10827 10833 10836 10842 10852 10858 10861 10866 10869 10875 10881 10885 10889 10894 10898 10905 10912 10916 10922 10925 10930 10937 10941 10943 10946 10949 10952 10955 10959 10963 10965 10967 10969 10971 10973 10975 10979 10981 10983 10985 10986 10989
10658 10657 10656 10656 10656 10656 10656 10656 10658 10660 10659 10660 10661 10661 10661 10662 10663 10663 10667 10669 10670 10673 10677 10682 10686 10690 10693 10696 10703 10710 10712 10718 10726 10733 10738 10742 10750 10755 10759 10765 10771 10775 10783 10795 10805 10811 10816 10822 10828 10837 10844 10848 10853 10858 10862 10869 10877 10878 10882 10888 10893 10901 10905 10909 10914 10919 10927 10936 10938 10939 10942 10945 10949 10953 10956 10959 10961 10962 10964 10967 10969 10972 10975 10978 10980 10982 10984 10987
10654 10652 10651 10651 10650 10650 10650 10649 10650 10651 10652 10652 10653 10652 10653 10653 10652 10653 10656 10657 10659 10661 10662 10666 10672 10677 10678 10681 10691 10698 10697 10703 10713 10719 10724 10730 10736 10739 10742 10748 10755 10766 10777 10786 10794 10798 10802 10810 10819 10826 10830 10836 10844 10849 10856 10865 10869 10868 10873 10880 10888 10894 10898 10902 10909 10915 10924 10933 10934 10933 10936 10941 10946 10949 10951 10954 10957 10959 10961 10964 10966 10969 10972 10975 10977 10979 10982 10984
10649 10648 10647 10646 10645 10644 10644 10643 10643 10643 10644 10644 10644 10645 10645 10644 10643 10644 10646 10647 10648 10650 10651 10654 10658 10662 10665 10669 10679 10682 10681 10691 10701 10704 10709 10717 10721 10723 10726 10735 10746 10758 10765 10770 10779 10786 10793 10803 10812 10816 10819 10826 10834 10840 10847 10856 10858 10859 10866 10874 10882 10888 10892 10897 10904 10912 10920 10926 10927 10927 10931 10938 10943 10944 10946 10949 10952 10954 10957 10960 10963 10966 10969 10971 10973 10977 10979 10981
10644 10643 10641 10641 10640 10639 10638 10637 10636 10635 10636 10635 10636 10637 10636 10634 10635 10636 10638 10639 10638 10639 10642 10643 10645 10650 10653 10658 10665 10664 10666 10679 10687 10688 10695 10702 10705 10706 10711 10723 10735 10745 10750 10755 10766 10775 10783 10794 10801 10806 10811 10818 10826 10832 10836 10842 10844 10848 10857 10864 10873 10881 10886 10891 10898 10905 10912 10917 10920 10921 10927 10936 10940 10940 10942 10944 10947 10950 10953 10956 10959 10962 10965 10967 10971 10974 10976 10978
10638 10637 10635 10634 10633 10632 10631 10630 10629 10628 10627 10627 10627 10628 10627 10626 10627 10627 10628 10629 10628 10629 10631 10632 10635 10639 10640 10645 10649 10648 10653 10666 10671 10672 10679 10685 10688 10691 10699 10715 10726 10732 10739 10745 10754 10762 10771 10781 10788 10794 10800 10804 10813 10821 10823 10826 10831 10838 10847 10854 10863 10875 10881 10884 10889 10897 10904 10910 10913 10915 10922 10930 10933 10934 10936 10939 10943 10946 10949 10952 10955 10958 10960 10964 10967 10971 10973 10975
10632 10630 10628 10627 10626 10625 10624 10622 10622 10620 10619 10619 10618 10619 10618 10618 10619 10619 10618 10619 10619 10619 10620 10623 10626 10627 10629 10631 10635 10638 10643 10651 10654 10655 10662 10670 10674 10678 10689 10706 10714 10718 10725 10731 10739 10749 10758 10766 10772 10779 10785 10790 10801 10811 10811 10814 10822 10831 10838 10846 10857 10868 10873 10874 10880 10889 10896 10904 10908 10910 10916 10922 10925 10928 10930 10934 10938 10942 10945 10948 10951 10954 10958 10962 10964 10965 10968 10971
10626 10623 10621 10620 10618 10617 10616 10614 10614 10613 10612 10611 10610 10610 10610 10609 10610 10610 10609 10610 10610 10610 10611 10615 10616 10616 10618 10620 10626 10630 10629 10633 10641 10643 10648 10658 10662 10666 10679 10694 10701 10704 10710 10716 10724 10734 10743 10752 10760 10768 10776 10784 10793 10802 10804 10805 10814 10822 10829 10838 10847 10855 10861 10864 10870 10878 10888 10898 10902 10904 10911 10917 10920 10924 10926 10929 10934 10937 10939 10942 10945 10951 10955 10958 10960 10960 10964 10967
10619 10615 10613 10612 10611 10609 10607 10606 10606 10605 10604 10602 10602 10602 10602 10601 10601 10601 10602 10602 10602 10602 10602 10606 10607 10606 10608 10612 10618 10619 10614 10622 10636 10634 10633 10643 10650 10655 10667 10681 10687 10689 10694 10702 10709 10719 10730 10741 10747 10753 10765 10775 10784 10795 10799 10799 10806 10816 10823 10829 10835 10842 10849 10854 10860 10871 10883 10890 10892 10896 10903 10910 10915 10919 10920 10923 10928 10932 10933 10936 10942 10946 10949 10954 10956 10956 10960 10964
10611 10607 10605 10604 10602 10600 10599 10598 10597 10597 10596 10595 10594 10594 10594 10594 10593 10593 10594 10594 10594 10595 10594 10597 10599 10598 10600 10603 10606 10607 10607 10614 10622 10618 10617 10631 10640 10644 10654 10667 10674 10675 10679 10687 10694 10703 10717 10727 10730 10737 10751 10763 10771 10779 10786 10791 10798 10807 10813 10820 10826 10832 10839 10846 10853 10863 10873 10879 10884 10890 10896 10903 10908 10911 10914 10917 10922 10927 10929 10932 10937 10939 10943 10949 10951 10952 10956 10961
10604 10599 10596 10595 10594 10592 10591 10590 10590 10589 10588 10588 10587 10587 10587 10587 10587 10586 10587 10587 10587 10588 10588 10589 10591 10591 10592 10594 10595 10599 10602 10601 10603 10606 10611 10620 10628 10633 10642 10654 10661 10662 10665 10672 10680 10687 10699 10711 10716 10724 10736 10748 10757 10765 10775 10782 10785 10791 10800 10809 10816 10823 10832 10840 10847 10855 10863 10872 10879 10884 10889 10896 10901 10903 10907 10912 10916 10921 10924 10926 10930 10933 10937 10943 10946 10949 10953 10957
10597 10594 10590 10588 10587 10585 10583 10582 10582 10582 10581 10581 10581 10580 10580 10580 10581 10581 10581 10581 10581 10581 10582 10583 10584 10584 10585 10587 10587 10591 10594 10592 10592 10597 10601 10607 10616 10625 10632 10640 10645 10647 10649 10655 10662 10668 10681 10696 10704 10709 10718 10732 10744 10751 10760 10769 10770 10776 10788 10796 10804 10814 10822 10832 10842 10850 10858 10867 10872 10876 10880 10887 10891 10892 10898 10904 10907 10912 10916 10919 10923 10926 10930 10936 10941 10944 10948 10953
10591 10588 10585 10583 10581 10579 10577 10576 10575 10575 10575 10575 10575 10575 10575 10575 10575 10575 10575 10576 10575 10575 10577 10577 10577 10578 10579 10580 10581 10583 10585 10586 10585 10586 10589 10597 10609 10615 10619 10624 10628 10629 10631 10635 10642 10654 10670 10686 10696 10700 10706 10720 10730 10734 10743 10753 10757 10762 10772 10780 10790 10800 10807 10819 10832 10840 10847 10857 10863 10867 10871 10876 10879 10882 10889 10896 10900 10905 10910 10913 10917 10921 10924 10930 10935 10939 10944 10949
10586 10583 10580 10578 10576 10574 10572 10571 10570 10570 10570 10570 10570 10570 10570 10570 10569 10570 10570 10570 10570 10570 10572 10572 10571 10572 10574 10573 10574 10577 10578 10578 10577 10578 10580 10587 10598 10603 10606 10612 10614 10613 10615 10619 10627 10643 10657 10667 10679 10685 10692 10706 10719 10726 10737 10747 10749 10752 10758 10766 10778 10788 10795 10807 10819 10826 10833 10842 10850 10856 10863 10867 10870 10876 10885 10890 10895 10900 10905 10909 10913 10916 10918 10925 10932 10935 10940 10945
10581 10578 10575 10573 10572 10570 10568 10566 10566 10566 10565 10565 10565 10565 10565 10565 10564 10565 10565 10564 10565 10565 10566 10567 10566 10566 10568 10566 10567 10571 10571 10570 10571 10572 10572 10577 10586 10592 10594 10600 10601 10597 10602 10609 10616 10628 10639 10648 10662 10671 10676 10689 10702 10711 10723 10733 10739 10746 10752 10760 10772 10781 10786 10793 10803 10810 10818 10829 10839 10846 10854 10858 10864 10873 10880 10884 10889 10894 10898 10902 10906 10910 10914 10919 10924 10930 10936 10942
10575 10572 10570 10568 10567 10565 10563 10562 10561 10561 10561 10561 10561 10560 10560 10560 10559 10560 10560 10560 10560 10560 10561 10562 10561 10561 10562 10561 10561 10563 10564 10565 10565 10565 10566 10568 10574 10580 10582 10588 10590 10584 10589 10600 10604 10613 10625 10635 10648 10658 10662 10674 10685 10691 10700 10710 10720 10732 10740 10750 10761 10770 10776 10785 10796 10803 10811 10823 10831 10839 10847 10851 10857 10865 10870 10875 10881 10884 10888 10893 10897 10903 10908 10911 10917 10927 10935 10939
10570 10567 10564 10563 10562 10560 10558 10557 10557 10556 10556 10556 10556 10556 10555 10555 10555 10555 10555 10555 10555 10555 10555 10556 10555 10555 10556 10556 10555 10555 10556 10558 10558 10559 10560 10560 10563 10569 10571 10576 10579 10574 10578 10588 10592 10602 10616 10625 10635 10644 10651 10661 10669 10674 10684 10695 10705 10716 10722 10730 10744 10756 10766 10775 10783 10793 10806 10815 10821 10831 10840 10842 10846 10853 10858 10863 10868 10871 10880 10889 10891 10894 10900 10907 10915 10925 10930 10933
10566 10563 10560 10557 10557 10555 10554 10553 10552 10551 10551 10551 10551 10551 10551 10551 10550 10550 10551 10551 10551 10550 10550 10550 10550 10550 10550 10550 10550 10550 10549 10550 10550 10551 10553 10553 10554 10558 10560 10564 10568 10566 10569 10577 10582 10592 10604 10613 10624 10635 10642 10650 10655 10663 10677 10688 10699 10708 10711 10716 10728 10740 10750 10757 10766 10782 10796 10803 10812 10825 10831 10831 10836 10842 10846 10853 10861 10869 10880 10886 10883 10885 10896 10906 10911 10916 10921 10926
10562 10558 10556 10553 10552 10551 10549 10548 10548 10547 10547 10547 10547 10547 10546 10546 10546 10546 10546 10546 10546 10546 10545 10545 10545 10544 10544 10544 10543 10544 10543 10543 10543 10544 10545 10546 10546 10548 10549 10551 10555 10558 10562 10566 10571 10580 10590 10601 10614 10624 10632 10638 10642 10650 10663 10673 10685 10696 10701 10707 10717 10729 10742 10755 10769 10783 10788 10792 10805 10816 10819 10822 10827 10835 10843 10850 10858 10866 10872 10873 10872 10876 10888 10897 10900 10904 10911 10917
10558 10554 10552 10549 10547 10546 10545 10544 10544 10543 10543 10543 10543 10543 10542 10542 10542 10542 10542 10542 10542 10542 10541 10540 10540 10539 10538 10538 10537 10537 10537 10536 10536 10536 10537 10538 10538 10538 10539 10539 10542 10549 10554 10556 10560 10568 10579 10592 10602 10610 10619 10626 10629 10637 10649 10661 10673 10682 10688 10696 10708 10720 10734 10747 10761 10773 10778 10786 10799 10807 10810 10814 10819 10826 10834 10839 10845 10854 10859 10861 10863 10867 10877 10887 10892 10897 10906 10912
10554 10550 10548 10546 10543 10542 10541 10540 10539 10539 10539 10539 10539 10539 10538 10538 10538 10538 10538 10538 10537 10537 10536 10536 10535 10534 10533 10532 10531 10530 10530 10529 10529 10529 10529 10530 10530 10530 10529 10528 10531 10539 10545 10546 10549 10557 10569 10580 10587 10595 10605 10615 10621 10629 10642 10655 10664 10671 10679 10688 10698 10711 10725 10736 10748 10759 10767 10780 10794 10800 10803 10809 10812 10815 10821 10826 10835 10844 10849 10854 10859 10862 10871 10883 10890 10895 10902 10908
10550 10547 10545 10542 10540 10538 10537 10536 10535 10535 10535 10535 10535 10535 10534 10534 10534 10534 10534 10534 10533 10532 10531 10530 10530 10529 10527 10526 10525 10524 10523 10522 10522 10522 10522 10522 10521 10521 10520 10519 10521 10528 10535 10537 10539 10547 10557 10564 10573 10582 10591 10603 10612 10619 10629 10640 10648 10658 10671 10682 10690 10702 10716 10729 10738 10745 10752 10766 10779 10784 10790 10799 10802 10801 10808 10817 10826 10835 10843 10850 10855 10858 10866 10876 10884 10889 10895 10902
10547 10544 10542 10539 10537 10535 10534 10533 10532 10532 10531 10531 10531 10531 10531 10530 10530 10530 10529 10529 10528 10527 10526 10525 10524 10523 10522 10520 10519 10517 10516 10515 10515 10515 10515 10514 10513 10512 10511 10510 10511 10517 10523 10526 10530 10536 10543 10550 10560 10569 10579 10591 10598 10602 10611 10621 10633 10652 10668 10676 10684 10692 10703 10716 10726 10733 10740 10750 10760 10769 10781 10789 10786 10783 10793 10807 10816 10828 10841 10846 10845 10848 10857 10867 10876 10883 10888 10894